Weather History for KJYO - September, 2013

Change the Weather History Date:

Thursday, September 5, 2013

  Actual Average (KIAD) Record (KIAD)
Temperature  
Mean Temperature 70 °F 72 °F  
Max Temperature 82 °F 83 °F 96 °F (1985)
Min Temperature 59 °F 61 °F 42 °F (1997)
Degree Days  
Heating Degree Days 0 0  
Month to date heating degree days 0  
Since 1 July heating degree days 2  
Cooling Degree Days 6 7  
Month to date cooling degree days 39  
Year to date cooling degree days 1055  
Growing Degree Days 20 (Base 50)    
Moisture  
Dew Point 59 °F    
Average Humidity 67    
Maximum Humidity 100    
Minimum Humidity 44    
Precipitation  
Precipitation 0.00 in 0.12 in 3.78 in (1979)
Month to date precipitation 0.59  
Year to date precipitation 28.59  
Snow  
Snow 0.00 in 0.00 in - ()
Month to date snowfall 0.0  
Since 1 July snowfall 0.0  
Snow Depth -    
Sea Level Pressure  
Sea Level Pressure 30.08 in    
Wind  
Wind Speed 6 mph (NW)    
Max Wind Speed 17 mph    
Max Gust Speed 22 mph    
Visibility 10 miles    
Events      
T = Trace of Precipitation, MM = Missing Value Source: NWS Daily Summary

Daily Weather History Graph

Daily Weather History Graph

Search for Another Location

Airport or City:

Trip Planner

Search our weather history database for the weather conditions in past years. The results will help you decide how hot, cold, wet, or windy it might be!

Date:

Astronomy

Sep. 05, 2013 Rise Set
Actual Time 6:42 AM EDT 7:34 PM EDT
Civil Twilight 6:15 AM EDT 8:01 PM EDT
Nautical Twilight 5:43 AM EDT 8:33 PM EDT
Astronomical Twilight 5:09 AM EDT 9:06 PM EDT
Moon 6:51 AM EDT (9/5) 7:25 PM EDT (9/5)
Length of Visible Light 13h 45m
Length of Day
12h 51m
New Moon, 0% of the Moon is Illuminated
Sep 5
New Moon
Sep 12
First Quarter
Sep 19
Full
Sep 26
Last Quarter
Oct 4
New

Hourly Weather History & Observations

Time (EDT) Temp. Heat Index Dew Point Humidity Pressure Visibility Wind Dir Wind Speed Gust Speed Precip Events Conditions
12:15 AM 66.2 °F - 62.6 °F 88% 30.07 in 10.0 mi West 3.5 mph - N/A   Clear
12:35 AM 64.4 °F - 62.6 °F 94% 30.07 in 10.0 mi SW 4.6 mph - N/A   Clear
12:55 AM 64.4 °F - 60.8 °F 88% 30.08 in 10.0 mi WSW 3.5 mph - N/A   Clear
1:15 AM 62.6 °F - 60.8 °F 94% 30.08 in 10.0 mi WSW 3.5 mph - N/A   Clear
1:35 AM 62.6 °F - 60.8 °F 94% 30.08 in 10.0 mi Calm Calm - N/A   Clear
1:55 AM 64.4 °F - 60.8 °F 88% 30.07 in 10.0 mi SSW 3.5 mph - N/A   Clear
2:15 AM 62.6 °F - 60.8 °F 94% 30.07 in 10.0 mi West 4.6 mph - N/A   Clear
2:35 AM 64.4 °F - 59.0 °F 83% 30.07 in 10.0 mi Calm Calm - N/A   Clear
2:55 AM 64.4 °F - 59.0 °F 83% 30.06 in 10.0 mi West 6.9 mph - N/A   Clear
3:15 AM 62.6 °F - 59.0 °F 88% 30.06 in 10.0 mi West 5.8 mph - N/A   Clear
3:35 AM 64.4 °F - 59.0 °F 83% 30.06 in 10.0 mi West 8.1 mph - N/A   Clear
3:55 AM 62.6 °F - 59.0 °F 88% 30.06 in 10.0 mi West 5.8 mph - N/A   Clear
4:15 AM 62.6 °F - 59.0 °F 88% 30.06 in 10.0 mi West 3.5 mph - N/A   Clear
4:35 AM 62.6 °F - 59.0 °F 88% 30.06 in 10.0 mi Calm Calm - N/A   Clear
4:55 AM 62.6 °F - 59.0 °F 88% 30.06 in 10.0 mi West 4.6 mph - N/A   Clear
5:15 AM 60.8 °F - 59.0 °F 94% 30.06 in 10.0 mi West 4.6 mph - N/A   Clear
5:35 AM 59.0 °F - 59.0 °F 100% 30.06 in 10.0 mi WSW 4.6 mph - N/A   Clear
5:55 AM 60.8 °F - 59.0 °F 94% 30.06 in 10.0 mi SW 4.6 mph - N/A   Clear
6:15 AM 60.8 °F - 59.0 °F 94% 30.06 in 10.0 mi WSW 4.6 mph - N/A   Clear
6:35 AM 59.0 °F - 59.0 °F 100% 30.06 in 10.0 mi WNW 3.5 mph - N/A   Clear
6:55 AM 59.0 °F - 59.0 °F 100% 30.07 in 7.0 mi SW 5.8 mph - N/A   Clear
7:15 AM 60.8 °F - 59.0 °F 94% 30.07 in 10.0 mi SW 3.5 mph - N/A   Clear
7:35 AM 62.6 °F - 59.0 °F 88% 30.07 in 10.0 mi Calm Calm - N/A   Clear
7:55 AM 64.4 °F - 60.8 °F 88% 30.07 in 10.0 mi Calm Calm - N/A   Clear
8:15 AM 66.2 °F - 60.8 °F 83% 30.07 in 10.0 mi Calm Calm - N/A   Clear
8:35 AM 69.8 °F - 60.8 °F 73% 30.07 in 10.0 mi WSW 5.8 mph - N/A   Scattered Clouds
8:55 AM 71.6 °F - 60.8 °F 69% 30.07 in 10.0 mi West 6.9 mph - N/A   Clear
9:15 AM 73.4 °F - 60.8 °F 65% 30.07 in 10.0 mi West 9.2 mph - N/A   Clear
9:35 AM 75.2 °F - 60.8 °F 61% 30.08 in 10.0 mi WSW 10.4 mph - N/A   Clear
9:55 AM 77.0 °F - 60.8 °F 57% 30.08 in 10.0 mi West 6.9 mph - N/A   Clear
10:15 AM 78.8 °F - 60.8 °F 54% 30.08 in 10.0 mi NW 12.7 mph 19.6 mph N/A   Clear
10:35 AM 78.8 °F - 62.6 °F 57% 30.08 in 10.0 mi NW 9.2 mph 18.4 mph N/A   Clear
10:55 AM 78.8 °F - 62.6 °F 57% 30.08 in 10.0 mi NNW 13.8 mph 18.4 mph N/A   Clear
11:15 AM 78.8 °F - 62.6 °F 57% 30.08 in 10.0 mi NW 16.1 mph - N/A   Clear
11:35 AM 80.6 °F 81.8 °F 62.6 °F 54% 30.08 in 10.0 mi NW 17.3 mph 20.7 mph N/A   Clear
11:55 AM 80.6 °F 81.8 °F 62.6 °F 54% 30.08 in 10.0 mi NNW 13.8 mph 18.4 mph N/A   Scattered Clouds
12:15 PM 78.8 °F - 62.6 °F 57% 30.08 in 10.0 mi North 11.5 mph 18.4 mph N/A   Mostly Cloudy
12:35 PM 80.6 °F 81.8 °F 62.6 °F 54% 30.07 in 10.0 mi NW 12.7 mph 16.1 mph N/A   Mostly Cloudy
12:55 PM 80.6 °F 81.8 °F 62.6 °F 54% 30.07 in 10.0 mi NNW 5.8 mph 16.1 mph N/A   Overcast
1:15 PM 80.6 °F 81.8 °F 62.6 °F 54% 30.06 in 10.0 mi North 10.4 mph 17.3 mph N/A   Overcast
1:35 PM 80.6 °F 81.8 °F 62.6 °F 54% 30.06 in 10.0 mi North 12.7 mph 16.1 mph N/A   Mostly Cloudy
1:55 PM 80.6 °F 81.8 °F 62.6 °F 54% 30.06 in 10.0 mi NNW 12.7 mph 20.7 mph N/A   Scattered Clouds
2:15 PM 80.6 °F 81.8 °F 62.6 °F 54% 30.06 in 10.0 mi NNW 9.2 mph 19.6 mph N/A   Mostly Cloudy
2:35 PM 82.4 °F 83.4 °F 62.6 °F 51% 30.05 in 10.0 mi North 11.5 mph 16.1 mph N/A   Mostly Cloudy
2:55 PM 82.4 °F 83.4 °F 62.6 °F 51% 30.05 in 10.0 mi NNW 12.7 mph 17.3 mph N/A   Scattered Clouds
3:15 PM 82.4 °F 83.4 °F 62.6 °F 51% 30.05 in 10.0 mi NNW 12.7 mph 18.4 mph N/A   Scattered Clouds
3:35 PM 82.4 °F 82.9 °F 60.8 °F 48% 30.04 in 10.0 mi NNW 8.1 mph - N/A   Scattered Clouds
3:55 PM 82.4 °F 82.5 °F 59.0 °F 45% 30.04 in 10.0 mi NNW 15.0 mph 20.7 mph N/A   Scattered Clouds
4:15 PM 82.4 °F 82.5 °F 59.0 °F 45% 30.04 in 10.0 mi NNW 12.7 mph 21.9 mph N/A   Scattered Clouds
4:35 PM 80.6 °F 81.1 °F 59.0 °F 48% 30.04 in 10.0 mi NNW 15.0 mph 19.6 mph N/A   Scattered Clouds
4:55 PM 80.6 °F 81.5 °F 60.8 °F 51% 30.04 in 10.0 mi North 9.2 mph 19.6 mph N/A   Scattered Clouds
5:15 PM 78.8 °F - 60.8 °F 54% 30.05 in 10.0 mi NNW 11.5 mph 18.4 mph N/A   Clear
5:35 PM 80.6 °F 81.5 °F 60.8 °F 51% 30.05 in 10.0 mi NNW 11.5 mph - N/A   Scattered Clouds
5:55 PM 78.8 °F - 59.0 °F 51% 30.06 in 10.0 mi North 10.4 mph - N/A   Scattered Clouds
6:15 PM 78.8 °F - 55.4 °F 44% 30.07 in 10.0 mi North 9.2 mph - N/A   Scattered Clouds
6:35 PM 77.0 °F - 55.4 °F 47% 30.07 in 10.0 mi North 9.2 mph - N/A   Scattered Clouds
6:55 PM 77.0 °F - 55.4 °F 47% 30.07 in 10.0 mi North 9.2 mph 16.1 mph N/A   Clear
7:15 PM 77.0 °F - 53.6 °F 44% 30.08 in 10.0 mi North 8.1 mph - N/A   Clear
7:35 PM 75.2 °F - 53.6 °F 47% 30.08 in 10.0 mi North 5.8 mph - N/A   Clear
7:55 PM 73.4 °F - 53.6 °F 50% 30.09 in 10.0 mi North 9.2 mph - N/A   Clear
8:15 PM 71.6 °F - 53.6 °F 53% 30.10 in 10.0 mi NNW 6.9 mph - N/A   Clear
8:35 PM 69.8 °F - 53.6 °F 56% 30.11 in 10.0 mi North 5.8 mph - N/A   Clear
8:55 PM 71.6 °F - 51.8 °F 50% 30.11 in 10.0 mi NNW 8.1 mph - N/A   Clear
9:15 PM 71.6 °F - 51.8 °F 50% 30.12 in 10.0 mi North 8.1 mph - N/A   Clear
9:35 PM 69.8 °F - 51.8 °F 53% 30.13 in 10.0 mi NNW 5.8 mph - N/A   Clear
9:55 PM 68.0 °F - 51.8 °F 56% 30.13 in 10.0 mi North 3.5 mph - N/A   Clear
10:15 PM 66.2 °F - 51.8 °F 60% 30.14 in 10.0 mi NNW 5.8 mph - N/A   Clear
10:35 PM 66.2 °F - 51.8 °F 60% 30.14 in 10.0 mi NNW 3.5 mph - N/A   Clear
10:55 PM 64.4 °F - 51.8 °F 64% 30.14 in 10.0 mi Calm Calm - N/A   Clear
11:15 PM 64.4 °F - 51.8 °F 64% 30.15 in 10.0 mi North 4.6 mph - N/A   Clear
11:35 PM 64.4 °F - 51.8 °F 64% 30.15 in 10.0 mi North 4.6 mph - N/A   Clear
11:55 PM 64.4 °F - 51.8 °F 64% 30.15 in 10.0 mi North 3.5 mph - N/A   Clear